Time,TemperatureF,DewpointF,PressureIn,WindDirection,WindDirectionDegrees,WindSpeedMPH,WindSpeedGustMPH,Humidity,HourlyPrecipIn,Conditions,Clouds,dailyrainin,SoftwareType,DateUTC
2013-03-29 00:02:00,38.0,30.0,-100.00,ESE,120,2.0,6.0,71,0.00,,,0.00,,2013-03-29 00:02:00,
2013-03-29 00:12:00,38.0,28.0,-100.00,SE,125,4.0,6.0,69,0.00,,,0.00,,2013-03-29 00:12:00,
2013-03-29 00:22:00,38.0,30.0,-100.00,SE,125,2.0,6.0,71,0.00,,,0.00,,2013-03-29 00:22:00,
2013-03-29 00:32:00,37.0,30.0,-100.00,SE,125,0.0,4.0,73,0.00,,,0.00,,2013-03-29 00:32:00,
2013-03-29 00:42:00,37.0,30.0,-100.00,SE,125,0.0,0.0,74,0.00,,,0.00,,2013-03-29 00:42:00,
2013-03-29 00:52:00,36.0,30.0,-100.00,SE,125,3.0,6.0,75,0.00,,,0.00,,2013-03-29 00:52:00,
2013-03-29 01:02:00,36.0,30.0,-100.00,ESE,120,0.0,4.0,77,0.00,,,0.00,,2013-03-29 01:02:00,
2013-03-29 01:12:00,36.0,30.0,-100.00,ESE,120,4.0,6.0,78,0.00,,,0.00,,2013-03-29 01:12:00,
2013-03-29 01:22:00,36.0,30.0,-100.00,ESE,120,4.0,6.0,78,0.00,,,0.00,,2013-03-29 01:22:00,
2013-03-29 01:32:00,36.0,28.0,-100.00,SE,125,0.0,6.0,77,0.00,,,0.00,,2013-03-29 01:32:00,
2013-03-29 01:42:00,36.0,30.0,-100.00,SE,130,0.0,0.0,77,0.00,,,0.00,,2013-03-29 01:42:00,
2013-03-29 01:52:00,35.0,28.0,-100.00,ESE,105,0.0,3.0,78,0.00,,,0.00,,2013-03-29 01:52:00,
2013-03-29 02:02:00,35.0,28.0,-100.00,ESE,120,0.0,3.0,79,0.00,,,0.00,,2013-03-29 02:02:00,
2013-03-29 02:12:00,35.0,28.0,-100.00,SE,125,1.0,4.0,79,0.00,,,0.00,,2013-03-29 02:12:00,
2013-03-29 02:22:00,35.0,28.0,-100.00,SE,125,0.0,5.0,81,0.00,,,0.00,,2013-03-29 02:22:00,
2013-03-29 02:32:00,35.0,30.0,-100.00,ESE,120,1.0,4.0,81,0.00,,,0.00,,2013-03-29 02:32:00,
2013-03-29 02:42:00,34.0,28.0,-100.00,SE,125,1.0,4.0,82,0.00,,,0.00,,2013-03-29 02:42:00,
2013-03-29 02:52:00,34.0,30.0,-100.00,ESE,120,3.0,6.0,83,0.00,,,0.00,,2013-03-29 02:52:00,
2013-03-29 03:02:00,34.0,28.0,-100.00,ESE,120,1.0,5.0,82,0.00,,,0.00,,2013-03-29 03:02:00,
2013-03-29 03:12:00,34.0,28.0,-100.00,ESE,115,0.0,5.0,83,0.00,,,0.00,,2013-03-29 03:12:00,
2013-03-29 03:22:00,34.0,28.0,-100.00,ESE,120,1.0,4.0,83,0.00,,,0.00,,2013-03-29 03:22:00,
2013-03-29 03:32:00,33.0,28.0,-100.00,ESE,115,0.0,2.0,83,0.00,,,0.00,,2013-03-29 03:32:00,
2013-03-29 03:42:00,33.0,28.0,-100.00,ESE,120,0.0,0.0,83,0.00,,,0.00,,2013-03-29 03:42:00,
2013-03-29 03:52:00,33.0,28.0,-100.00,ESE,110,0.0,3.0,83,0.00,,,0.00,,2013-03-29 03:52:00,
2013-03-29 04:03:00,33.0,28.0,-100.00,ESE,120,0.0,3.0,85,0.00,,,0.00,,2013-03-29 04:03:00,
2013-03-29 04:12:00,33.0,28.0,-100.00,ESE,120,0.0,3.0,85,0.00,,,0.00,,2013-03-29 04:12:00,
2013-03-29 04:22:00,33.0,28.0,-100.00,SE,125,0.0,0.0,84,0.00,,,0.00,,2013-03-29 04:22:00,
2013-03-29 04:33:00,33.0,28.0,-100.00,SE,125,0.0,0.0,85,0.00,,,0.00,,2013-03-29 04:33:00,
2013-03-29 04:42:00,32.0,28.0,-100.00,SE,130,0.0,0.0,85,0.00,,,0.00,,2013-03-29 04:42:00,
2013-03-29 04:52:00,32.0,28.0,-100.00,SE,130,0.0,0.0,86,0.00,,,0.00,,2013-03-29 04:52:00,
2013-03-29 05:03:00,32.0,28.0,-100.00,SE,130,0.0,0.0,86,0.00,,,0.00,,2013-03-29 05:03:00,
2013-03-29 05:12:00,32.0,28.0,-100.00,SE,135,0.0,0.0,87,0.00,,,0.00,,2013-03-29 05:12:00,
2013-03-29 05:23:00,32.0,28.0,-100.00,SE,130,0.0,0.0,86,0.00,,,0.00,,2013-03-29 05:23:00,
2013-03-29 05:32:00,32.0,28.0,-100.00,SE,130,0.0,0.0,86,0.00,,,0.00,,2013-03-29 05:32:00,
2013-03-29 05:43:00,33.0,28.0,-100.00,ESE,120,0.0,0.0,86,0.00,,,0.00,,2013-03-29 05:43:00,
2013-03-29 05:52:00,33.0,28.0,-100.00,ESE,115,0.0,0.0,87,0.00,,,0.00,,2013-03-29 05:52:00,
2013-03-29 06:02:00,33.0,30.0,-100.00,ESE,120,0.0,0.0,86,0.00,,,0.00,,2013-03-29 06:02:00,
2013-03-29 06:12:00,33.0,30.0,-100.00,ESE,115,0.0,0.0,86,0.00,,,0.00,,2013-03-29 06:12:00,
2013-03-29 06:23:00,33.0,30.0,-100.00,SE,135,0.0,0.0,86,0.00,,,0.00,,2013-03-29 06:23:00,
2013-03-29 06:32:00,33.0,30.0,-100.00,SE,140,0.0,0.0,86,0.00,,,0.00,,2013-03-29 06:32:00,
2013-03-29 06:42:00,33.0,28.0,-100.00,SSE,150,0.0,0.0,86,0.00,,,0.00,,2013-03-29 06:42:00,
2013-03-29 06:52:00,33.0,28.0,-100.00,SE,135,0.0,0.0,85,0.00,,,0.00,,2013-03-29 06:52:00,
2013-03-29 07:02:00,33.0,28.0,-100.00,SE,130,0.0,0.0,85,0.00,,,0.00,,2013-03-29 07:02:00,
2013-03-29 07:12:00,33.0,28.0,-100.00,ESE,120,0.0,0.0,85,0.00,,,0.00,,2013-03-29 07:12:00,
2013-03-29 07:22:00,33.0,28.0,-100.00,SE,125,0.0,0.0,85,0.00,,,0.00,,2013-03-29 07:22:00,
2013-03-29 07:32:00,33.0,28.0,-100.00,ESE,120,0.0,0.0,86,0.00,,,0.00,,2013-03-29 07:32:00,
2013-03-29 07:42:00,33.0,30.0,-100.00,SE,140,0.0,0.0,86,0.00,,,0.00,,2013-03-29 07:42:00,
2013-03-29 07:52:00,33.0,30.0,-100.00,SE,130,0.0,0.0,85,0.00,,,0.00,,2013-03-29 07:52:00,
2013-03-29 08:02:00,33.0,30.0,-100.00,SE,135,0.0,0.0,85,0.00,,,0.00,,2013-03-29 08:02:00,
2013-03-29 08:12:00,33.0,30.0,-100.00,ESE,115,0.0,0.0,85,0.00,,,0.00,,2013-03-29 08:12:00,
2013-03-29 08:22:00,33.0,30.0,-100.00,ESE,120,0.0,0.0,85,0.00,,,0.00,,2013-03-29 08:22:00,
2013-03-29 08:32:00,33.0,30.0,-100.00,East,95,0.0,0.0,85,0.00,,,0.00,,2013-03-29 08:32:00,
2013-03-29 08:42:00,33.0,30.0,-100.00,SE,130,0.0,0.0,86,0.00,,,0.00,,2013-03-29 08:42:00,
2013-03-29 08:52:00,33.0,30.0,-100.00,SE,130,0.0,0.0,86,0.00,,,0.00,,2013-03-29 08:52:00,
2013-03-29 09:02:00,33.0,30.0,-100.00,SSE,150,0.0,0.0,87,0.00,,,0.00,,2013-03-29 09:02:00,
2013-03-29 09:12:00,34.0,30.0,-100.00,SSE,150,0.0,0.0,85,0.00,,,0.00,,2013-03-29 09:12:00,
2013-03-29 09:22:00,33.0,28.0,-100.00,SSE,160,0.0,0.0,86,0.00,,,0.00,,2013-03-29 09:22:00,
2013-03-29 09:32:00,33.0,28.0,-100.00,SE,145,0.0,0.0,86,0.00,,,0.00,,2013-03-29 09:32:00,
2013-03-29 09:42:00,33.0,28.0,-100.00,SE,140,0.0,0.0,86,0.00,,,0.00,,2013-03-29 09:42:00,
2013-03-29 09:52:00,33.0,28.0,-100.00,SE,130,0.0,0.0,86,0.00,,,0.00,,2013-03-29 09:52:00,
2013-03-29 10:02:00,33.0,28.0,-100.00,SE,125,0.0,0.0,85,0.00,,,0.00,,2013-03-29 10:02:00,
2013-03-29 10:12:00,32.0,28.0,-100.00,SE,135,0.0,0.0,86,0.00,,,0.00,,2013-03-29 10:12:00,
2013-03-29 10:22:00,31.0,28.0,-100.00,ESE,115,0.0,0.0,89,0.00,,,0.00,,2013-03-29 10:22:00,
2013-03-29 10:33:00,31.0,28.0,-100.00,SE,125,0.0,0.0,89,0.00,,,0.00,,2013-03-29 10:33:00,
2013-03-29 10:42:00,31.0,28.0,-100.00,SE,140,0.0,0.0,89,0.00,,,0.00,,2013-03-29 10:42:00,
2013-03-29 10:52:00,31.0,28.0,-100.00,SE,125,0.0,0.0,89,0.00,,,0.00,,2013-03-29 10:52:00,
2013-03-29 11:03:00,31.0,28.0,-100.00,SE,130,0.0,0.0,88,0.00,,,0.00,,2013-03-29 11:03:00,
2013-03-29 11:12:00,31.0,28.0,-100.00,SE,125,0.0,0.0,88,0.00,,,0.00,,2013-03-29 11:12:00,
2013-03-29 11:23:00,32.0,28.0,-100.00,ESE,110,0.0,0.0,89,0.00,,,0.00,,2013-03-29 11:23:00,
2013-03-29 11:32:00,32.0,28.0,-100.00,ESE,120,0.0,0.0,88,0.00,,,0.00,,2013-03-29 11:32:00,
2013-03-29 11:42:00,32.0,28.0,-100.00,ESE,105,0.0,0.0,87,0.00,,,0.00,,2013-03-29 11:42:00,
2013-03-29 11:52:00,33.0,28.0,-100.00,ESE,110,0.0,0.0,86,0.00,,,0.00,,2013-03-29 11:52:00,
2013-03-29 12:02:00,32.0,28.0,-100.00,ESE,110,0.0,0.0,86,0.00,,,0.00,,2013-03-29 12:02:00,
2013-03-29 12:12:00,31.0,28.0,-100.00,ESE,115,0.0,0.0,87,0.00,,,0.00,,2013-03-29 12:12:00,
2013-03-29 12:22:00,32.0,28.0,-100.00,SE,125,0.0,0.0,88,0.00,,,0.00,,2013-03-29 12:22:00,
2013-03-29 12:32:00,33.0,28.0,-100.00,SE,140,0.0,0.0,87,0.00,,,0.00,,2013-03-29 12:32:00,
2013-03-29 12:42:00,33.0,28.0,-100.00,SE,145,0.0,0.0,87,0.00,,,0.00,,2013-03-29 12:42:00,
2013-03-29 12:52:00,33.0,28.0,-100.00,SSE,155,0.0,0.0,86,0.00,,,0.00,,2013-03-29 12:52:00,
2013-03-29 13:03:00,33.0,30.0,-100.00,SSE,160,0.0,0.0,85,0.00,,,0.00,,2013-03-29 13:03:00,
2013-03-29 13:12:00,34.0,30.0,-100.00,SSE,160,0.0,0.0,83,0.00,,,0.00,,2013-03-29 13:12:00,
2013-03-29 13:22:00,34.0,30.0,-100.00,SE,145,0.0,0.0,84,0.00,,,0.00,,2013-03-29 13:22:00,
2013-03-29 13:32:00,34.0,30.0,-100.00,SSE,160,0.0,2.0,83,0.00,,,0.00,,2013-03-29 13:32:00,
2013-03-29 13:42:00,35.0,30.0,-100.00,SSE,150,0.0,2.0,83,0.00,,,0.00,,2013-03-29 13:42:00,
2013-03-29 13:52:00,35.0,30.0,-100.00,SSE,160,0.0,0.0,83,0.00,,,0.00,,2013-03-29 13:52:00,
2013-03-29 14:02:00,35.0,30.0,-100.00,SSE,155,0.0,2.0,83,0.00,,,0.00,,2013-03-29 14:02:00,
2013-03-29 14:12:00,35.0,30.0,-100.00,SSE,150,0.0,1.0,83,0.00,,,0.00,,2013-03-29 14:12:00,
2013-03-29 14:22:00,37.0,30.0,-100.00,SE,130,0.0,0.0,78,0.00,,,0.00,,2013-03-29 14:22:00,
2013-03-29 14:32:00,37.0,30.0,-100.00,SE,130,0.0,0.0,77,0.00,,,0.00,,2013-03-29 14:32:00,
2013-03-29 14:42:00,37.0,30.0,-100.00,SSE,165,0.0,0.0,77,0.00,,,0.00,,2013-03-29 14:42:00,
2013-03-29 14:52:00,37.0,30.0,-100.00,SSE,150,0.0,0.0,80,0.00,,,0.00,,2013-03-29 14:52:00,
2013-03-29 15:02:00,38.0,32.0,-100.00,SSE,160,0.0,0.0,79,0.00,,,0.00,,2013-03-29 15:02:00,
2013-03-29 15:12:00,37.0,32.0,-100.00,SSE,150,3.0,4.0,79,0.00,,,0.00,,2013-03-29 15:12:00,
2013-03-29 15:22:00,39.0,32.0,-100.00,SE,140,1.0,6.0,75,0.00,,,0.00,,2013-03-29 15:22:00,
2013-03-29 15:33:00,40.0,32.0,-100.00,SE,135,0.0,4.0,73,0.00,,,0.00,,2013-03-29 15:33:00,
2013-03-29 15:43:00,40.0,32.0,-100.00,SE,125,0.0,1.0,72,0.00,,,0.00,,2013-03-29 15:43:00,
2013-03-29 15:52:00,40.0,32.0,-100.00,SE,135,3.0,7.0,72,0.00,,,0.00,,2013-03-29 15:52:00,
2013-03-29 16:03:00,40.0,32.0,-100.00,SE,145,1.0,7.0,72,0.00,,,0.00,,2013-03-29 16:03:00,
2013-03-29 16:12:00,40.0,32.0,-100.00,ESE,115,2.0,6.0,72,0.00,,,0.00,,2013-03-29 16:12:00,
2013-03-29 16:23:00,42.0,34.0,-100.00,SE,130,2.0,5.0,70,0.00,,,0.00,,2013-03-29 16:23:00,
2013-03-29 16:32:00,42.0,34.0,-100.00,SE,140,5.0,6.0,70,0.00,,,0.00,,2013-03-29 16:32:00,
2013-03-29 16:42:00,43.0,34.0,-100.00,SE,125,3.0,8.0,70,0.00,,,0.00,,2013-03-29 16:42:00,
2013-03-29 16:52:00,44.0,36.0,-100.00,SSE,155,0.0,4.0,69,0.00,,,0.00,,2013-03-29 16:52:00,
2013-03-29 17:03:00,44.0,36.0,-100.00,SSE,165,2.0,4.0,73,0.00,,,0.00,,2013-03-29 17:03:00,
2013-03-29 17:12:00,44.0,36.0,-100.00,SSE,160,7.0,9.0,72,0.00,,,0.00,,2013-03-29 17:12:00,
2013-03-29 17:22:00,44.0,36.0,-100.00,SSE,165,5.0,8.0,73,0.00,,,0.00,,2013-03-29 17:22:00,
2013-03-29 17:33:00,44.0,37.0,-100.00,SSE,160,6.0,7.0,73,0.00,,,0.00,,2013-03-29 17:33:00,
2013-03-29 17:42:00,45.0,37.0,-100.00,SSE,155,4.0,7.0,74,0.00,,,0.00,,2013-03-29 17:42:00,
2013-03-29 17:52:00,46.0,37.0,-100.00,SSE,155,2.0,5.0,73,0.00,,,0.00,,2013-03-29 17:52:00,
2013-03-29 18:02:00,46.0,37.0,-100.00,SE,130,4.0,8.0,72,0.00,,,0.00,,2013-03-29 18:02:00,
2013-03-29 18:12:00,46.0,37.0,-100.00,SE,140,6.0,8.0,72,0.00,,,0.00,,2013-03-29 18:12:00,
2013-03-29 18:22:00,46.0,37.0,-100.00,SSE,150,6.0,9.0,70,0.00,,,0.00,,2013-03-29 18:22:00,
2013-03-29 18:32:00,47.0,37.0,-100.00,SE,125,6.0,9.0,70,0.00,,,0.00,,2013-03-29 18:32:00,
2013-03-29 18:42:00,47.0,39.0,-100.00,SE,130,6.0,9.0,72,0.00,,,0.00,,2013-03-29 18:42:00,
2013-03-29 18:52:00,47.0,39.0,-100.00,SE,135,9.0,12.0,72,0.00,,,0.00,,2013-03-29 18:52:00,
2013-03-29 19:02:00,47.0,39.0,-100.00,SE,145,8.0,12.0,72,0.00,,,0.00,,2013-03-29 19:02:00,
2013-03-29 19:12:00,48.0,39.0,-100.00,SE,130,7.0,12.0,72,0.00,,,0.00,,2013-03-29 19:12:00,
2013-03-29 19:22:00,48.0,39.0,-100.00,SE,145,7.0,10.0,72,0.00,,,0.00,,2013-03-29 19:22:00,
2013-03-29 19:32:00,48.0,39.0,-100.00,SE,140,7.0,11.0,72,0.00,,,0.00,,2013-03-29 19:32:00,
2013-03-29 19:42:00,49.0,41.0,-100.00,SSE,150,7.0,11.0,72,0.00,,,0.00,,2013-03-29 19:42:00,
2013-03-29 19:52:00,49.0,41.0,-100.00,SSE,155,9.0,12.0,75,0.00,,,0.00,,2013-03-29 19:52:00,
2013-03-29 20:02:00,48.0,41.0,-100.00,SSE,155,7.0,12.0,75,0.00,,,0.00,,2013-03-29 20:02:00,
2013-03-29 20:12:00,48.0,41.0,-100.00,SSE,155,3.0,11.0,76,0.00,,,0.00,,2013-03-29 20:12:00,
2013-03-29 20:22:00,48.0,41.0,-100.00,SSE,155,7.0,11.0,76,0.00,,,0.00,,2013-03-29 20:22:00,
2013-03-29 20:32:00,49.0,41.0,-100.00,SE,145,7.0,12.0,72,0.00,,,0.00,,2013-03-29 20:32:00,
2013-03-29 20:42:00,50.0,41.0,-100.00,SSE,155,6.0,11.0,72,0.00,,,0.00,,2013-03-29 20:42:00,
2013-03-29 20:52:00,50.0,43.0,-100.00,SSE,150,7.0,12.0,74,0.00,,,0.00,,2013-03-29 20:52:00,
2013-03-29 21:02:00,50.0,43.0,-100.00,SSE,160,9.0,12.0,76,0.00,,,0.00,,2013-03-29 21:02:00,
2013-03-29 21:12:00,49.0,43.0,-100.00,SSE,155,6.0,10.0,75,0.00,,,0.00,,2013-03-29 21:12:00,
2013-03-29 21:22:00,50.0,41.0,-100.00,SE,145,10.0,12.0,73,0.00,,,0.00,,2013-03-29 21:22:00,
2013-03-29 21:32:00,50.0,43.0,-100.00,SE,135,7.0,11.0,74,0.00,,,0.00,,2013-03-29 21:32:00,
2013-03-29 21:42:00,50.0,43.0,-100.00,SE,145,4.0,11.0,75,0.00,,,0.00,,2013-03-29 21:42:00,
2013-03-29 21:53:00,50.0,43.0,-100.00,SE,140,6.0,11.0,74,0.00,,,0.00,,2013-03-29 21:53:00,
2013-03-29 22:03:00,50.0,43.0,-100.00,SE,145,9.0,11.0,75,0.00,,,0.00,,2013-03-29 22:03:00,
2013-03-29 22:12:00,49.0,43.0,-100.00,SE,140,8.0,11.0,76,0.00,,,0.00,,2013-03-29 22:12:00,
2013-03-29 22:22:00,49.0,43.0,-100.00,SE,135,6.0,11.0,76,0.00,,,0.00,,2013-03-29 22:22:00,
2013-03-29 22:33:00,49.0,43.0,-100.00,SE,135,9.0,12.0,76,0.00,,,0.00,,2013-03-29 22:33:00,
2013-03-29 22:42:00,49.0,43.0,-100.00,SE,140,7.0,12.0,76,0.00,,,0.00,,2013-03-29 22:42:00,
2013-03-29 22:52:00,49.0,43.0,-100.00,SE,145,7.0,12.0,77,0.00,,,0.00,,2013-03-29 22:52:00,
2013-03-29 23:02:00,49.0,43.0,-100.00,SE,140,7.0,11.0,77,0.00,,,0.00,,2013-03-29 23:02:00,
2013-03-29 23:12:00,48.0,43.0,-100.00,SE,135,8.0,11.0,78,0.00,,,0.00,,2013-03-29 23:12:00,
2013-03-29 23:22:00,48.0,41.0,-100.00,SE,145,9.0,12.0,78,0.00,,,0.00,,2013-03-29 23:22:00,
2013-03-29 23:32:00,47.0,41.0,-100.00,SE,140,8.0,12.0,79,0.00,,,0.00,,2013-03-29 23:32:00,
2013-03-29 23:42:00,47.0,41.0,-100.00,SE,140,7.0,10.0,80,0.00,,,0.00,,2013-03-29 23:42:00,
2013-03-29 23:52:00,46.0,41.0,-100.00,SE,140,6.0,9.0,80,0.00,,,0.00,,2013-03-29 23:52:00,